User: anonymous   Login
Location: Unspecified
(0.0000°N, 0.0000°E)
Time: 14:01:28
(UTC+00:00)
Language:

A-11 Canister half - Orbit

View from above orbital plane
View from above orbital plane
View from above satellite
View from above satellite

Ground track
Ground track

The orbit data is extracted from the following two-line orbital elements,

1    51U 60009C   19200.70237049 -.00000080  00000-0  35875-4 0  9996
2    51  47.2147 299.9630 0107218 249.7556 109.1678 12.18273871623393
Epoch (UTC): 19 July 2019 16:51:24
Eccentricity: 0.0107218
inclination: 47.2147°
perigee height: 1514 km
apogee height: 1685 km
right ascension of ascending node: 299.9630°
argument of perigee: 249.7556°
revolutions per day: 12.18273871
mean anomaly at epoch: 109.1678°
orbit number at epoch: 62339

The dashed part of the orbit path shows where the satellite is in the earth's shadow,  

DLR